Location: Paderno d�Adda
(45.6667°N, 9.4333°E)
Time: 00:45:11
(UTC+00:00)

ERS-1 Rocket - Pass Details

Date: 19 September 2020
Orbit: 753 x 757 km, 98.5° (Epoch: 26 October)

Event Time Altitude Azimuth Distance (km) Brightness Sun altitude
Exits shadow 20:17:26 28° 24° (NNE) 1,405 4.4 -29.0°
Drops below altitude 10° 20:20:11 10° 1° (N) 2,294 5.9 -29.4°
Sets 20:22:37 0° 354° (N) 3,224 6.8 -29.7°
